User: anonymous   Login
Location: PACMO
(41.3967°N, 90.3760°W)
Time: 19:52:31
(UTC-05:00)
Language:

BREEZE-M DEB (TANK) - Orbit

View from above orbital plane
View from above orbital plane
View from above satellite
View from above satellite

Ground track
Ground track

The orbit data is extracted from the following two-line orbital elements,

1 31863U 07032B   17206.45616592 -.00000048 +00000-0 +24049-4 0  9993
2 31863 045.9275 298.1665 4979249 047.8138 344.9483 05.52105964201596
Epoch (UTC): 25 July 2017 10:56:52
Eccentricity: 0.4979249
inclination: 45.9275°
perigee height: 411 km
apogee height: 13877 km
right ascension of ascending node: 298.1665°
argument of perigee: 47.8138°
revolutions per day: 5.52105964
mean anomaly at epoch: 344.9483°
orbit number at epoch: 20159

The dashed part of the orbit path shows where the satellite is in the earth's shadow,  

DLR